Weather History for ORANGE GROVE, NALF, TX

Change the Weather History Date:

Sunday, January 19, 2014

  Actual Average (KALI) Record (KALI)
Temperature  
Mean Temperature 60 °F -  
Max Temperature 75 °F 68 °F 86 °F (2000)
Min Temperature 46 °F 46 °F 34 °F (2003)
Degree Days  
Heating Degree Days 4    
Growing Degree Days 10 (Base 50)    
Moisture  
Dew Point 45 °F    
Average Humidity 70    
Maximum Humidity 100    
Minimum Humidity 25    
Precipitation  
Precipitation 0.00 in - - ()
Sea Level Pressure  
Sea Level Pressure 30.17 in    
Wind  
Wind Speed 7 mph (NNE)    
Max Wind Speed 12 mph    
Max Gust Speed 20 mph    
Visibility 8 miles    
Events      
Averages and records for this station are not official NWS values.
T = Trace of Precipitation, MM = Missing Value Source: NWS Daily Summary

Daily Weather History Graph

Daily Weather History Graph

Search for Another Location

Airport:

Trip Planner

Search our weather history database for the weather conditions in past years. The results will help you decide how hot, cold, wet, or windy it might be!

Date:

Astronomy

Jan. 19, 2014 Rise Set
Actual Time 7:23 AM CST 6:02 PM CST
Civil Twilight 6:58 AM CST 6:27 PM CST
Nautical Twilight 6:30 AM CST 6:55 PM CST
Astronomical Twilight 6:02 AM CST 7:24 PM CST
Moon 9:19 PM CST (1/19) 9:14 AM CST (1/19)
Length of Visible Light 11h 28m
Length of Day
10h 38m
Waning Gibbous, 89% of the Moon is Illuminated
Jan 19
Waning Gibbous
Jan 23
Last Quarter
Jan 30
New
Feb 6
First Quarter
Feb 14
Full

Hourly Weather History & Observations

Time (CST) Temp. Windchill Dew Point Humidity Pressure Visibility Wind Dir Wind Speed Gust Speed Precip Events Conditions
12:56 AM 48.9 °F - 46.9 °F 93% 30.14 in 10.0 mi NNE 8.1 mph - N/A   Clear
1:56 AM 48.9 °F - 46.9 °F 93% 30.15 in 10.0 mi North 6.9 mph - N/A   Clear
2:56 AM 48.9 °F - 46.9 °F 93% 30.15 in 8.0 mi North 6.9 mph - N/A   Clear
3:56 AM 48.9 °F - 46.9 °F 93% 30.16 in 5.0 mi North 5.8 mph - N/A   Clear
4:00 AM 48.0 °F - 46.9 °F 96% 30.21 in 1.8 mi North 5.8 mph - N/A   Partly Cloudy
4:06 AM 48.0 °F - 46.9 °F 96% 30.21 in 0.8 mi North 5.8 mph - N/A   Mist
4:51 AM 46.4 °F 42.9 °F 46.4 °F 100% 30.21 in 1.2 mi North 6.9 mph - N/A   Overcast
4:56 AM 46.0 °F 43.1 °F 46.0 °F 100% 30.16 in 1.2 mi North 5.8 mph - N/A   Overcast
5:04 AM 46.9 °F - 46.0 °F 97% 30.21 in 3.0 mi North 5.8 mph - N/A   Mostly Cloudy
5:15 AM 46.0 °F 42.5 °F 46.0 °F 100% 30.22 in 9.0 mi North 6.9 mph - N/A   Scattered Clouds
5:56 AM 46.9 °F - 46.9 °F 100% 30.17 in 10.0 mi NW 6.9 mph - N/A   Clear
6:56 AM 48.0 °F - 46.9 °F 96% 30.19 in 10.0 mi NNW 9.2 mph - N/A   Clear
7:56 AM 51.1 °F - 48.9 °F 92% 30.21 in 10.0 mi North - - N/A   Clear
8:56 AM 55.0 °F - 51.1 °F 86% 30.24 in 10.0 mi North 11.5 mph - N/A   Clear
9:56 AM 64.0 °F - 48.0 °F 56% 30.26 in 10.0 mi NNE 10.4 mph - N/A   Clear
10:56 AM 68.0 °F - 45.0 °F 43% 30.26 in 10.0 mi North 6.9 mph - N/A   Clear
11:56 AM 71.1 °F - 44.1 °F 38% 30.24 in 10.0 mi NE 10.4 mph 19.6 mph N/A   Clear
12:56 PM 73.9 °F - 42.1 °F 32% 30.19 in 10.0 mi NE 8.1 mph - N/A   Clear
1:56 PM 75.9 °F - 39.0 °F 26% 30.16 in 10.0 mi ENE 5.8 mph - N/A   Clear
2:56 PM 75.0 °F - 39.0 °F 27% 30.14 in 10.0 mi Calm Calm - N/A   Clear
3:56 PM 75.9 °F - 37.9 °F 25% 30.13 in 10.0 mi SSE 5.8 mph - N/A   Clear
4:56 PM 75.0 °F - 39.0 °F 27% 30.13 in 10.0 mi Calm Calm - N/A   Clear
5:56 PM 71.1 °F - 39.0 °F 31% 30.12 in 10.0 mi South 3.5 mph - N/A   Clear
6:56 PM 62.1 °F - 41.0 °F 46% 30.13 in 10.0 mi SE 8.1 mph - N/A   Clear
7:56 PM 57.0 °F - 39.9 °F 53% 30.13 in 10.0 mi SSE 6.9 mph - N/A   Clear
8:56 PM 54.0 °F - 43.0 °F 66% 30.13 in 10.0 mi SSE 6.9 mph - N/A   Clear
9:56 PM 55.0 °F - 44.1 °F 67% 30.12 in 10.0 mi South 4.6 mph - N/A   Clear
10:56 PM 54.0 °F - 45.0 °F 72% 30.12 in 10.0 mi SW 4.6 mph - N/A   Clear
11:56 PM 52.0 °F - 48.9 °F 89% 30.10 in 10.0 mi WSW 6.9 mph - N/A   Clear